Showing default

COSMOS 2515, 41394

Orbit data source: Space-Track

COSMOS 2515, 41394 is a payload satellite owned by VVKO VKS (CIS) in SSO that was launched on Thu, 24 Mar 2016 UTC via a SOYUZ-2-1A launch vehicle from the Plesetsk Missile And Space Complex (PKMTR). Payloads include a variety of satellites, spacecraft, and rockets equipped with specific instruments for various scientific and technological missions. These include communications satellites like Starlink; space stations such as the ISS; scientific satellites like the Hubble; Earth observation satellites from companies like Planet Labs, Umbra, and HawkEye 360; GPS; miniature CubeSats for education and research; and military/defense satellites.

Loading next visibility...
COSMOS 2515 details
Identifier
41394, 2016-020A
Orbit
SSO
Last TLE update8 hours ago
Origin
Flag of CISVVKO VKS (CIS)
ManufacturerArsenal
MissionOperational Defense Imaging
Bus & MotorBARS, AOCS
Mass3,700 kg wet, ~3,500 kg dry
Launch date (UTC)
2016-03-24 (9 years ago)
Launch vehicle
SOYUZ-2-1A
Launch site
Plesetsk Missile And Space Complex (PKMTR)
Object type
Payload
Rocket body
Debris
Shape & HBRCyl + 2 Pan, 10 m
Radar Cross Section20.881 m², Large (>1 m²)

Expand to show TLE details & history

TLE from 8 hours ago
0 COSMOS 2515
1 41394U 16020A   24361.09834746  .00005064  00000-0  36074-3 0  9995
2 41394  97.9650 346.4672 0023945 323.0634  36.8942 15.04856279479396
Epoch: 2024-12-26T02:21Z
Definitive object data (Epoch: 2024-12-26T02:21:37.22Z)
Latitude0.00003°
Longitude-144.02051°
Altitude541.741 km
Speed7.599 km/s
True Right ascension23h 05m 52s
True Declination0° 00' 00"
Sunlit
Object was in daylight at TLE epoch
Visualization TLE readout
Latitude-43.81783°
Longitude-136.01282°
Altitude552.348 km
Speed7.593 km/s
Apparent Right ascension22h 34m 34s
Apparent Declination-42° 53' 37"
Sunlit
Object is in daylight
Visualization observer readout
Local Sidereal Time09:29:47
Azimuth250.94° W
Elevation-77.516°
Doppler factor1
Orbital elements
Apogee altitude565.544 km
Perigee altitude532.371 km
Semi-major axis6,927.095 km
Eccentricity0.0023945
Inclination97.965°
RAAN346.4672°
Arg. of periapsis323.0634°
True anomaly37.05932°
Mean anomaly36.8942°
Eccentric anomaly36.97672°
Mean motion3.76458 °/min
BSTAR0.00036074
Orbital period95.63 mins
Loading maneuver chart data...
Loading historical data...
Loading historical data...
Loading historical data...
Loading historical data...
Loading historical data...
Loading historical data...
Loading historical data...
Other satellites on launch #20 in the year 2016 (2016-03-24 UTC)

COSMOS 2515 Visibility forecast

Observer location: undefined°, undefined

Span
Click to sort rows by Start time (UTC) header in descending order
Start Az.
Max El. time (UTC)
Max El. Az.
Max El.
End time (UTC)
End Az.
6 mins2024-12-26 12:30:39.772Z353.172° N2024-12-26 12:32:39.772Z304.975° NW37.01°2024-12-26 12:36:39.772Z211.894° SW
6 mins2024-12-26 23:14:39.772Z163.374° S2024-12-26 23:16:39.772Z150.85° SSE43.297°2024-12-26 23:20:39.772Z348.788° N
|